DLH370 EDLW-EDDC

Flight info

Callsign DLH370
Flight time N/A
Altitude 23000
Route NUDGO3Q NUDGO Z858 BERDI/N0418F350 Z21 OSTRA DCT OSKAN OSKAN4B
Aircraft A20N/M-SDE2E3FGHIRWXY/LB1

Departure

Time 2026-04-30 20:31
Airport Dortmund Airport (EDLW)

Arrival

Time N/A
Airport Dresden Airport (EDDC)
Time Latitude Longitude Altitude Speed Heading
2026-04-30 19:58 51.51415 7.61000 437 ft 0 kts 143°
2026-04-30 20:12 51.51424 7.60989 422 ft 2 kts 143°
2026-04-30 20:12 51.51437 7.60973 421 ft 2 kts 142°
2026-04-30 20:13 51.51450 7.60957 421 ft 2 kts 138°
2026-04-30 20:13 51.51461 7.60938 421 ft 2 kts 115°
2026-04-30 20:13 51.51462 7.60915 425 ft 1 kts 66°
2026-04-30 20:13 51.51461 7.60912 424 ft 0 kts 65°
2026-04-30 20:14 51.51468 7.60934 422 ft 7 kts 64°
2026-04-30 20:15 51.51518 7.61047 429 ft 15 kts 30°
2026-04-30 20:15 51.51572 7.61005 424 ft 7 kts 256°
2026-04-30 20:15 51.51563 7.60972 419 ft 0 kts 242°
2026-04-30 20:16 51.51557 7.60955 424 ft 5 kts 242°
2026-04-30 20:16 51.51520 7.60849 417 ft 17 kts 241°
2026-04-30 20:16 51.51485 7.60748 424 ft 5 kts 240°
2026-04-30 20:16 51.51482 7.60742 421 ft 0 kts 240°
2026-04-30 20:18 51.51477 7.60728 417 ft 4 kts 240°
2026-04-30 20:19 51.51456 7.60668 420 ft 9 kts 240°
2026-04-30 20:19 51.51425 7.60577 427 ft 0 kts 240°
2026-04-30 20:21 51.51414 7.60548 420 ft 6 kts 240°
2026-04-30 20:22 51.51404 7.60519 421 ft 0 kts 240°
2026-04-30 20:24 51.51396 7.60497 418 ft 5 kts 240°
2026-04-30 20:24 51.51367 7.60414 421 ft 10 kts 242°
2026-04-30 20:25 51.51359 7.60371 426 ft 0 kts 262°
2026-04-30 20:30 51.51498 7.60279 419 ft 11 kts 50°
2026-04-30 20:30 51.51520 7.60336 423 ft 24 kts 60°
2026-04-30 20:31 51.52756 7.64095 1500 ft 172 kts 68°
2026-04-30 20:32 51.54781 7.70072 3717 ft 240 kts 63°
2026-04-30 20:32 51.56203 7.75119 4846 ft 250 kts 89°
2026-04-30 20:33 51.55917 7.77833 4979 ft 248 kts 114°
2026-04-30 20:33 51.54443 7.82791 5001 ft 245 kts 116°
2026-04-30 20:33 51.53709 7.85252 5014 ft 245 kts 116°
2026-04-30 20:34 51.52120 7.90150 5372 ft 248 kts 124°
2026-04-30 20:34 51.49770 7.94312 6732 ft 254 kts 132°
2026-04-30 20:35 51.48534 7.96367 7783 ft 258 kts 132°
2026-04-30 20:35 51.47280 7.98470 8773 ft 264 kts 132°
2026-04-30 20:35 51.44678 8.02825 10718 ft 277 kts 131°
2026-04-30 20:36 51.43314 8.05134 11211 ft 299 kts 128°
2026-04-30 20:36 51.42181 8.08045 11615 ft 318 kts 111°
2026-04-30 20:36 51.41624 8.15137 13385 ft 326 kts 90°
2026-04-30 20:37 51.41609 8.18790 14261 ft 332 kts 90°
2026-04-30 20:37 51.41581 8.22518 15048 ft 336 kts 90°
2026-04-30 20:37 51.41545 8.26282 15878 ft 339 kts 90°
2026-04-30 20:37 51.41506 8.30097 16684 ft 344 kts 90°
2026-04-30 20:38 51.41466 8.33904 17463 ft 348 kts 90°
2026-04-30 20:38 51.41425 8.37803 18235 ft 352 kts 90°
2026-04-30 20:38 51.41383 8.41757 18969 ft 357 kts 90°
2026-04-30 20:39 51.41296 8.49783 20326 ft 364 kts 90°
2026-04-30 20:39 51.41253 8.53866 20987 ft 368 kts 90°
2026-04-30 20:39 51.41208 8.57991 21644 ft 372 kts 90°
2026-04-30 20:40 51.41110 8.66372 22951 ft 380 kts 89°
2026-04-30 20:40 51.41056 8.70634 23316 ft 383 kts 89°
2026-04-30 20:40 51.40994 8.74911 23401 ft 384 kts 91°
2026-04-30 20:41 51.40377 8.83386 23403 ft 385 kts 95°
2026-04-30 20:41 51.40037 8.87635 23396 ft 385 kts 95°
2026-04-30 20:41 51.39697 8.91889 23411 ft 385 kts 95°
2026-04-30 20:41 51.39359 8.96144 23401 ft 385 kts 95°
2026-04-30 20:42 51.39020 9.00401 23408 ft 385 kts 95°
2026-04-30 20:42 51.38683 9.04649 23402 ft 385 kts 94°
2026-04-30 20:42 51.38674 9.13124 23411 ft 382 kts 85°
2026-04-30 20:43 51.38808 9.17375 23415 ft 382 kts 85°
2026-04-30 20:43 51.38935 9.21628 23413 ft 382 kts 85°
2026-04-30 20:43 51.39058 9.25878 23413 ft 382 kts 85°
2026-04-30 20:44 51.39299 9.34404 23419 ft 382 kts 85°
2026-04-30 20:44 51.39418 9.38659 23426 ft 382 kts 85°
2026-04-30 20:44 51.39650 9.47119 23430 ft 382 kts 85°
2026-04-30 20:45 51.39877 9.55628 23420 ft 383 kts 85°
2026-04-30 20:45 51.39989 9.59888 23436 ft 382 kts 85°
2026-04-30 20:45 51.40097 9.64140 23426 ft 380 kts 85°
2026-04-30 20:46 51.40417 9.76839 23421 ft 381 kts 85°
2026-04-30 20:46 51.40521 9.81086 23425 ft 382 kts 85°
2026-04-30 20:47 51.40724 9.89533 23422 ft 381 kts 85°
2026-04-30 20:47 51.40824 9.93783 23420 ft 381 kts 85°
2026-04-30 20:48 51.41019 10.02281 23428 ft 381 kts 85°
2026-04-30 20:48 51.41113 10.06530 23427 ft 381 kts 85°
2026-04-30 20:48 51.41207 10.10781 23446 ft 382 kts 85°
2026-04-30 20:48 51.41297 10.15018 23428 ft 379 kts 85°
2026-04-30 20:49 51.41387 10.19235 23427 ft 380 kts 85°
2026-04-30 20:49 51.41476 10.23470 23429 ft 380 kts 85°
2026-04-30 20:49 51.41564 10.27703 23428 ft 380 kts 85°
2026-04-30 20:50 51.41734 10.36159 23427 ft 380 kts 85°
2026-04-30 20:50 51.41816 10.40388 23430 ft 379 kts 85°
2026-04-30 20:50 51.41895 10.44563 23429 ft 380 kts 85°
2026-04-30 20:50 51.41972 10.48798 23431 ft 380 kts 86°
2026-04-30 20:51 51.41869 10.53040 23435 ft 383 kts 92°
2026-04-30 20:51 51.41065 10.61498 23439 ft 383 kts 95°
2026-04-30 20:51 51.40654 10.65709 23433 ft 383 kts 95°
2026-04-30 20:52 51.40245 10.69916 23429 ft 383 kts 95°
2026-04-30 20:52 51.39832 10.74137 23431 ft 383 kts 95°
2026-04-30 20:52 51.39000 10.82568 23432 ft 383 kts 95°
2026-04-30 20:53 51.38581 10.86781 23432 ft 383 kts 95°
2026-04-30 20:53 51.38180 10.90994 23434 ft 382 kts 92°
2026-04-30 20:53 51.38035 10.95225 23435 ft 379 kts 86°
2026-04-30 20:54 51.38336 11.03578 23430 ft 378 kts 83°
2026-04-30 20:54 51.38494 11.07776 23456 ft 378 kts 83°
2026-04-30 20:54 51.38646 11.11974 23428 ft 376 kts 83°
2026-04-30 20:55 51.38948 11.20340 23432 ft 377 kts 83°
2026-04-30 20:55 51.39097 11.24528 23428 ft 377 kts 83°
2026-04-30 20:55 51.39244 11.28719 23436 ft 377 kts 83°
2026-04-30 20:56 51.39533 11.37045 23431 ft 377 kts 83°
2026-04-30 20:56 51.39675 11.41225 23426 ft 377 kts 83°
2026-04-30 20:56 51.39956 11.49589 23178 ft 374 kts 83°
2026-04-30 20:57 51.39984 11.53763 22907 ft 377 kts 92°
2026-04-30 20:57 51.39342 11.57860 22664 ft 383 kts 105°
2026-04-30 20:57 51.38411 11.61865 22401 ft 382 kts 105°
2026-04-30 20:58 51.36537 11.69719 21889 ft 378 kts 105°
2026-04-30 20:58 51.35606 11.73643 21626 ft 376 kts 105°
2026-04-30 20:58 51.34678 11.77569 21387 ft 378 kts 105°
2026-04-30 20:58 51.33753 11.81478 21132 ft 373 kts 105°
2026-04-30 20:59 51.31925 11.89202 20631 ft 369 kts 105°
2026-04-30 20:59 51.31016 11.93035 20382 ft 368 kts 105°
2026-04-30 21:00 51.29203 12.00654 19921 ft 364 kts 105°
2026-04-30 21:00 51.27419 12.08118 19445 ft 359 kts 105°
2026-04-30 21:01 51.25640 12.15549 18976 ft 357 kts 105°
2026-04-30 21:01 51.24756 12.19244 18749 ft 355 kts 104°
2026-04-30 21:01 51.24341 12.26792 18195 ft 341 kts 84°
2026-04-30 21:02 51.24413 12.30586 17929 ft 341 kts 84°
2026-04-30 21:02 51.24486 12.34316 17669 ft 340 kts 84°
2026-04-30 21:02 51.24562 12.38093 17407 ft 339 kts 84°
2026-04-30 21:02 51.24639 12.41854 17146 ft 338 kts 84°
2026-04-30 21:03 51.24718 12.45601 16890 ft 338 kts 84°
2026-04-30 21:03 51.24797 12.49350 16641 ft 338 kts 84°
2026-04-30 21:03 51.24874 12.53092 16466 ft 337 kts 84°
2026-04-30 21:03 51.24952 12.56846 16431 ft 337 kts 84°
2026-04-30 21:04 51.25029 12.60547 16431 ft 337 kts 84°
2026-04-30 21:04 51.25106 12.64289 16426 ft 337 kts 84°
2026-04-30 21:04 51.25260 12.71772 16432 ft 337 kts 84°
2026-04-30 21:05 51.25310 12.74252 16386 ft 335 kts 84°
2026-04-30 21:05 51.25385 12.77957 15935 ft 333 kts 84°
2026-04-30 21:05 51.25494 12.82896 14964 ft 332 kts 84°
2026-04-30 21:05 51.25552 12.85331 14402 ft 331 kts 85°
2026-04-30 21:06 51.25649 12.89008 13519 ft 329 kts 84°
2026-04-30 21:06 51.25749 12.92635 12729 ft 324 kts 85°
2026-04-30 21:06 51.25852 12.96210 11940 ft 320 kts 85°
2026-04-30 21:06 51.25957 12.99744 11138 ft 318 kts 85°
2026-04-30 21:07 51.26063 13.03224 10651 ft 311 kts 84°
2026-04-30 21:07 51.26169 13.06633 10492 ft 308 kts 84°
2026-04-30 21:07 51.26271 13.09971 10363 ft 292 kts 84°
2026-04-30 21:07 51.26361 13.13108 10204 ft 274 kts 85°
2026-04-30 21:08 51.26446 13.16089 9775 ft 265 kts 85°
2026-04-30 21:08 51.26536 13.19032 9260 ft 267 kts 85°
2026-04-30 21:08 51.26635 13.21975 8758 ft 264 kts 85°
2026-04-30 21:08 51.26740 13.24864 8505 ft 261 kts 85°
2026-04-30 21:09 51.26850 13.27779 8434 ft 263 kts 85°
2026-04-30 21:09 51.26959 13.30679 8426 ft 255 kts 85°
2026-04-30 21:09 51.27054 13.33349 8425 ft 232 kts 85°
2026-04-30 21:09 51.27216 13.35866 8429 ft 229 kts 77°
2026-04-30 21:10 51.27582 13.38338 8375 ft 227 kts 75°
2026-04-30 21:10 51.27966 13.40804 8099 ft 230 kts 75°
2026-04-30 21:10 51.28357 13.43296 7616 ft 232 kts 75°
2026-04-30 21:10 51.28758 13.45796 7124 ft 232 kts 75°
2026-04-30 21:11 51.29166 13.48302 6631 ft 233 kts 75°
2026-04-30 21:11 51.29574 13.50820 6111 ft 234 kts 75°
2026-04-30 21:11 51.29981 13.53344 5601 ft 235 kts 75°
2026-04-30 21:11 51.30387 13.55868 5089 ft 235 kts 75°
2026-04-30 21:12 51.30791 13.58405 4567 ft 236 kts 75°
2026-04-30 21:12 51.31180 13.60915 4142 ft 233 kts 75°
2026-04-30 21:12 51.31551 13.63357 3997 ft 218 kts 75°
2026-04-30 21:12 51.31909 13.65740 3981 ft 223 kts 75°
2026-04-30 21:13 51.32266 13.68135 3982 ft 220 kts 76°
2026-04-30 21:13 51.32284 13.70590 3990 ft 225 kts 94°
2026-04-30 21:13 51.32088 13.73074 3983 ft 224 kts 95°
2026-04-30 21:13 51.31888 13.75535 3983 ft 223 kts 95°
2026-04-30 21:14 51.31691 13.77969 3984 ft 216 kts 95°
2026-04-30 21:14 51.31500 13.80285 3981 ft 206 kts 95°
2026-04-30 21:14 51.31310 13.82579 3980 ft 209 kts 95°
2026-04-30 21:14 51.31120 13.84877 3986 ft 210 kts 95°
2026-04-30 21:15 51.30927 13.87214 3980 ft 212 kts 95°
2026-04-30 21:15 51.30736 13.89527 3978 ft 209 kts 95°
2026-04-30 21:15 51.30549 13.91773 3985 ft 202 kts 95°
2026-04-30 21:15 51.30121 13.93918 3983 ft 208 kts 122°
2026-04-30 21:16 51.28986 13.95354 3984 ft 215 kts 158°
2026-04-30 21:16 51.27492 13.95518 3989 ft 221 kts 191°
2026-04-30 21:16 51.26003 13.94876 3983 ft 221 kts 194°
2026-04-30 21:16 51.24574 13.94009 4048 ft 222 kts 212°
2026-04-30 21:17 51.23396 13.92388 3853 ft 231 kts 228°
2026-04-30 21:17 51.22361 13.90229 3075 ft 253 kts 237°
2026-04-30 21:17 51.21402 13.87954 2681 ft 233 kts 233°
2026-04-30 21:17 51.20376 13.86252 2408 ft 198 kts 219°
2026-04-30 21:18 51.19380 13.84926 2091 ft 178 kts 220°
2026-04-30 21:18 51.18474 13.83706 1759 ft 164 kts 220°
2026-04-30 21:18 51.17651 13.82589 1572 ft 147 kts 220°
2026-04-30 21:18 51.16902 13.81577 1325 ft 137 kts 221°
2026-04-30 21:19 51.16222 13.80620 1084 ft 127 kts 220°
2026-04-30 21:19 51.15525 13.79671 968 ft 142 kts 220°
2026-04-30 21:19 51.14680 13.78529 993 ft 179 kts 221°
2026-04-30 21:19 51.13635 13.77061 1183 ft 224 kts 221°
2026-04-30 21:20 51.12351 13.75289 1527 ft 264 kts 220°
2026-04-30 21:20 51.11058 13.73501 2073 ft 227 kts 222°